Year,Month,Day,Hour,Minute,Value (Times are PST for temperature in C)
2011,04,27,01,11,8.30
2011,04,27,01,12,8.30
2011,04,27,01,13,8.30
2011,04,27,01,14,8.30
2011,04,27,01,15,8.30
2011,04,27,01,16,8.30
2011,04,27,01,17,8.30
2011,04,27,01,18,8.30
2011,04,27,01,19,8.30
2011,04,27,01,20,8.30
2011,04,27,01,21,8.30
2011,04,27,01,22,8.30
2011,04,27,01,23,8.30
2011,04,27,01,24,8.30
2011,04,27,01,25,8.30
2011,04,27,01,26,8.30
2011,04,27,01,27,8.30
2011,04,27,01,28,8.30
2011,04,27,01,29,8.30
2011,04,27,01,30,8.30
2011,04,27,01,31,8.30
2011,04,27,01,32,8.30
2011,04,27,01,33,8.30
2011,04,27,01,34,8.30
2011,04,27,01,35,8.30
2011,04,27,01,36,8.30
2011,04,27,01,37,8.30
2011,04,27,01,38,8.30
2011,04,27,01,39,8.30
2011,04,27,01,40,8.30
2011,04,27,01,41,8.40
2011,04,27,01,42,8.40
2011,04,27,01,43,8.40
2011,04,27,01,44,8.40
2011,04,27,01,45,8.40
2011,04,27,01,46,8.40
2011,04,27,01,47,8.40
2011,04,27,01,48,8.40
2011,04,27,01,49,8.40
2011,04,27,01,50,8.40
2011,04,27,01,51,8.40
2011,04,27,01,52,8.40
2011,04,27,01,53,8.40
2011,04,27,01,54,8.40
2011,04,27,01,55,8.40
2011,04,27,01,56,8.30
2011,04,27,01,57,8.30
2011,04,27,01,58,8.30
2011,04,27,01,59,8.30
2011,04,27,02,00,8.30
2011,04,27,02,01,8.30
2011,04,27,02,02,8.30
2011,04,27,02,03,8.30
2011,04,27,02,04,8.30
2011,04,27,02,05,8.30
2011,04,27,02,06,8.30
2011,04,27,02,07,8.30
2011,04,27,02,08,8.30
2011,04,27,02,09,8.30
2011,04,27,02,10,8.30
2011,04,27,02,11,8.20
2011,04,27,02,12,8.20
2011,04,27,02,13,8.20
2011,04,27,02,14,8.20
2011,04,27,02,15,8.20
2011,04,27,02,16,8.20
2011,04,27,02,17,8.20
2011,04,27,02,18,8.20
2011,04,27,02,19,8.20
2011,04,27,02,20,8.20
2011,04,27,02,21,8.20
2011,04,27,02,22,8.20
2011,04,27,02,23,8.20
2011,04,27,02,24,8.20
2011,04,27,02,25,8.20
2011,04,27,02,26,8.10
2011,04,27,02,27,8.10
2011,04,27,02,28,8.10
2011,04,27,02,29,8.10
2011,04,27,02,30,8.10
2011,04,27,02,31,8.10
2011,04,27,02,32,8.10
2011,04,27,02,33,8.10
2011,04,27,02,34,8.10
2011,04,27,02,35,8.10
2011,04,27,02,36,8.10
2011,04,27,02,37,8.10
2011,04,27,02,38,8.10
2011,04,27,02,39,8.10
2011,04,27,02,40,8.10
2011,04,27,02,41,8.10
2011,04,27,02,42,8.10
2011,04,27,02,43,8.10
2011,04,27,02,44,8.10
2011,04,27,02,45,8.10
2011,04,27,02,46,8.10
2011,04,27,02,47,8.10
2011,04,27,02,48,8.10
2011,04,27,02,49,8.10
2011,04,27,02,50,8.10
2011,04,27,02,51,8.10
2011,04,27,02,52,8.10
2011,04,27,02,53,8.10
2011,04,27,02,54,8.10
2011,04,27,02,55,8.10
2011,04,27,02,56,8.00
2011,04,27,02,57,8.00
2011,04,27,02,58,8.00
2011,04,27,02,59,8.00
2011,04,27,03,00,8.00
2011,04,27,03,01,8.00
2011,04,27,03,02,8.00
2011,04,27,03,03,8.00
2011,04,27,03,04,8.00
2011,04,27,03,05,8.00
2011,04,27,03,06,8.00
2011,04,27,03,07,8.00
2011,04,27,03,08,8.00
2011,04,27,03,09,8.00
2011,04,27,03,10,8.00
2011,04,27,03,11,7.90
2011,04,27,03,12,7.90
2011,04,27,03,13,7.90
2011,04,27,03,14,7.90
2011,04,27,03,15,7.90
2011,04,27,03,16,7.90
2011,04,27,03,17,7.90
2011,04,27,03,18,7.90
2011,04,27,03,19,7.90
2011,04,27,03,20,7.90
2011,04,27,03,21,7.90
2011,04,27,03,22,7.90
2011,04,27,03,23,7.90
2011,04,27,03,24,7.90
2011,04,27,03,25,7.90
2011,04,27,03,26,7.80
2011,04,27,03,27,7.80
2011,04,27,03,28,7.80
2011,04,27,03,29,7.80
2011,04,27,03,30,7.80
2011,04,27,03,31,7.80
2011,04,27,03,32,7.80
2011,04,27,03,33,7.80
2011,04,27,03,34,7.80
2011,04,27,03,35,7.80
2011,04,27,03,36,7.80
2011,04,27,03,37,7.80
2011,04,27,03,38,7.80
2011,04,27,03,39,7.80
2011,04,27,03,40,7.80
2011,04,27,03,41,7.90
2011,04,27,03,42,7.90
2011,04,27,03,43,7.90
2011,04,27,03,44,7.90
2011,04,27,03,45,7.90
2011,04,27,03,46,7.90
2011,04,27,03,47,7.90
2011,04,27,03,48,7.90
2011,04,27,03,49,7.90
2011,04,27,03,50,7.90
2011,04,27,03,51,7.90
2011,04,27,03,52,7.90
2011,04,27,03,53,7.90
2011,04,27,03,54,7.90
2011,04,27,03,55,7.90
2011,04,27,03,56,7.70
2011,04,27,03,57,7.70
2011,04,27,03,58,7.70
2011,04,27,03,59,7.70
2011,04,27,04,00,7.70
2011,04,27,04,01,7.70
2011,04,27,04,02,7.70
2011,04,27,04,03,7.70
2011,04,27,04,04,7.70
2011,04,27,04,05,7.70
2011,04,27,04,06,7.70
2011,04,27,04,07,7.70
2011,04,27,04,08,7.70
2011,04,27,04,09,7.70
2011,04,27,04,10,7.70
2011,04,27,04,11,7.70
2011,04,27,04,12,7.70
2011,04,27,04,13,7.70
2011,04,27,04,14,7.70
2011,04,27,04,15,7.70
2011,04,27,04,16,7.70
2011,04,27,04,17,7.70
2011,04,27,04,18,7.70
2011,04,27,04,19,7.70
2011,04,27,04,20,7.70
2011,04,27,04,21,7.70
2011,04,27,04,22,7.70
2011,04,27,04,23,7.70
2011,04,27,04,24,7.70
2011,04,27,04,25,7.70
2011,04,27,04,26,7.60
2011,04,27,04,27,7.60
2011,04,27,04,28,7.60
2011,04,27,04,29,7.60
2011,04,27,04,30,7.60
2011,04,27,04,31,7.60
2011,04,27,04,32,7.60
2011,04,27,04,33,7.60
2011,04,27,04,34,7.60
2011,04,27,04,35,7.60
2011,04,27,04,36,7.60
2011,04,27,04,37,7.60
2011,04,27,04,38,7.60
2011,04,27,04,39,7.60
2011,04,27,04,40,7.60
2011,04,27,04,41,7.60
2011,04,27,04,42,7.60
2011,04,27,04,43,7.60
2011,04,27,04,44,7.60
2011,04,27,04,45,7.60
2011,04,27,04,46,7.60
2011,04,27,04,47,7.60
2011,04,27,04,48,7.60
2011,04,27,04,49,7.60
2011,04,27,04,50,7.60
2011,04,27,04,51,7.60
2011,04,27,04,52,7.60
2011,04,27,04,53,7.60
2011,04,27,04,54,7.60
2011,04,27,04,55,7.60
2011,04,27,04,56,7.40
2011,04,27,04,57,7.40
2011,04,27,04,58,7.40
2011,04,27,04,59,7.40
2011,04,27,05,00,7.40
2011,04,27,05,01,7.40
2011,04,27,05,02,7.40
2011,04,27,05,03,7.40
2011,04,27,05,04,7.40
2011,04,27,05,05,7.40
2011,04,27,05,06,7.40
2011,04,27,05,07,7.40
2011,04,27,05,08,7.40
2011,04,27,05,09,7.40
2011,04,27,05,10,7.40
2011,04,27,05,11,7.40
2011,04,27,05,12,7.40
2011,04,27,05,13,7.40
2011,04,27,05,14,7.40
2011,04,27,05,15,7.40
2011,04,27,05,16,7.40
2011,04,27,05,17,7.40
2011,04,27,05,18,7.40
2011,04,27,05,19,7.40
2011,04,27,05,20,7.40
2011,04,27,05,21,7.40
2011,04,27,05,22,7.40
2011,04,27,05,23,7.40
2011,04,27,05,24,7.40
2011,04,27,05,25,7.40
2011,04,27,05,26,7.40
2011,04,27,05,27,7.40
2011,04,27,05,28,7.40
2011,04,27,05,29,7.40
2011,04,27,05,30,7.40
2011,04,27,05,31,7.40
2011,04,27,05,32,7.40
2011,04,27,05,33,7.40
2011,04,27,05,34,7.40
2011,04,27,05,35,7.40
2011,04,27,05,36,7.40
2011,04,27,05,37,7.40
2011,04,27,05,38,7.40
2011,04,27,05,39,7.40
2011,04,27,05,40,7.40
2011,04,27,05,41,7.30
2011,04,27,05,42,7.30
2011,04,27,05,43,7.30
2011,04,27,05,44,7.30
2011,04,27,05,45,7.30
2011,04,27,05,46,7.30
2011,04,27,05,47,7.30
2011,04,27,05,48,7.30
2011,04,27,05,49,7.30
2011,04,27,05,50,7.30
2011,04,27,05,51,7.30
2011,04,27,05,52,7.30
2011,04,27,05,53,7.30
2011,04,27,05,54,7.30
2011,04,27,05,55,7.30
2011,04,27,05,56,7.20
2011,04,27,05,57,7.20
2011,04,27,05,58,7.20
2011,04,27,05,59,7.20
2011,04,27,06,00,7.20
2011,04,27,06,01,7.20
2011,04,27,06,02,7.20
2011,04,27,06,03,7.20
2011,04,27,06,04,7.20
2011,04,27,06,05,7.20
2011,04,27,06,06,7.20
2011,04,27,06,07,7.20
2011,04,27,06,08,7.20
2011,04,27,06,09,7.20
2011,04,27,06,10,7.20
2011,04,27,06,11,7.20
2011,04,27,06,12,7.20
2011,04,27,06,13,7.20
2011,04,27,06,14,7.20
2011,04,27,06,15,7.20
2011,04,27,06,16,7.20
2011,04,27,06,17,7.20
2011,04,27,06,18,7.20
2011,04,27,06,19,7.20
2011,04,27,06,20,7.20
2011,04,27,06,21,7.20
2011,04,27,06,22,7.20
2011,04,27,06,23,7.20
2011,04,27,06,24,7.20
2011,04,27,06,25,7.20
2011,04,27,06,26,7.20
2011,04,27,06,27,7.20
2011,04,27,06,28,7.20
2011,04,27,06,29,7.20
2011,04,27,06,30,7.20
2011,04,27,06,31,7.20
2011,04,27,06,32,7.20
2011,04,27,06,33,7.20
2011,04,27,06,34,7.20
2011,04,27,06,35,7.20
2011,04,27,06,36,7.20
2011,04,27,06,37,7.20
2011,04,27,06,38,7.20
2011,04,27,06,39,7.20
2011,04,27,06,40,7.20
2011,04,27,06,41,7.20
2011,04,27,06,42,7.20
2011,04,27,06,43,7.20
2011,04,27,06,44,7.20
2011,04,27,06,45,7.20
2011,04,27,06,46,7.20
2011,04,27,06,47,7.20
2011,04,27,06,48,7.20
2011,04,27,06,49,7.20
2011,04,27,06,50,7.20
2011,04,27,06,51,7.20
2011,04,27,06,52,7.20
2011,04,27,06,53,7.20
2011,04,27,06,54,7.20
2011,04,27,06,55,7.20
2011,04,27,06,56,7.20
2011,04,27,06,57,7.20
2011,04,27,06,58,7.20
2011,04,27,06,59,7.20
2011,04,27,07,00,7.20
2011,04,27,07,01,7.20
2011,04,27,07,02,7.20
2011,04,27,07,03,7.20
2011,04,27,07,04,7.20
2011,04,27,07,05,7.20
2011,04,27,07,06,7.20
2011,04,27,07,07,7.20
2011,04,27,07,08,7.20
2011,04,27,07,09,7.20
2011,04,27,07,10,7.20
2011,04,27,07,11,7.10
2011,04,27,07,12,7.10
2011,04,27,07,13,7.10
2011,04,27,07,14,7.10
2011,04,27,07,15,7.10
2011,04,27,07,16,7.10
2011,04,27,07,17,7.10
2011,04,27,07,18,7.10
2011,04,27,07,19,7.10
2011,04,27,07,20,7.10
2011,04,27,07,21,7.10
2011,04,27,07,22,7.10
2011,04,27,07,23,7.10
2011,04,27,07,24,7.10
2011,04,27,07,25,7.10
2011,04,27,07,26,7.10
2011,04,27,07,27,7.10
2011,04,27,07,28,7.10
2011,04,27,07,29,7.10
2011,04,27,07,30,7.10
2011,04,27,07,31,7.10
2011,04,27,07,32,7.10
2011,04,27,07,33,7.10
2011,04,27,07,34,7.10
2011,04,27,07,35,7.10
2011,04,27,07,36,7.10
2011,04,27,07,37,7.10
2011,04,27,07,38,7.10
2011,04,27,07,39,7.10
2011,04,27,07,40,7.10
2011,04,27,07,41,7.10
2011,04,27,07,42,7.10
2011,04,27,07,43,7.10
2011,04,27,07,44,7.10
2011,04,27,07,45,7.10
2011,04,27,07,46,7.10
2011,04,27,07,47,7.10
2011,04,27,07,48,7.10
2011,04,27,07,49,7.10
2011,04,27,07,50,7.10
2011,04,27,07,51,7.10
2011,04,27,07,52,7.10
2011,04,27,07,53,7.10
2011,04,27,07,54,7.10
2011,04,27,07,55,7.10
2011,04,27,07,56,7.60
2011,04,27,07,57,7.60
2011,04,27,07,58,7.60
2011,04,27,07,59,7.60
2011,04,27,08,00,7.60
2011,04,27,08,01,7.60
2011,04,27,08,02,7.60
2011,04,27,08,03,7.60
2011,04,27,08,04,7.60
2011,04,27,08,05,7.60
2011,04,27,08,06,7.60
2011,04,27,08,07,7.60
2011,04,27,08,08,7.60
2011,04,27,08,09,7.60
2011,04,27,08,10,7.60
2011,04,27,08,11,7.70
2011,04,27,08,12,7.70
2011,04,27,08,13,7.70
2011,04,27,08,14,7.70
2011,04,27,08,15,7.70
2011,04,27,08,16,7.70
2011,04,27,08,17,7.70
2011,04,27,08,18,7.70
2011,04,27,08,19,7.70
2011,04,27,08,20,7.70
2011,04,27,08,21,7.70
2011,04,27,08,22,7.70
2011,04,27,08,23,7.70
2011,04,27,08,24,7.70
2011,04,27,08,25,7.70
2011,04,27,08,26,8.10
2011,04,27,08,27,8.10
2011,04,27,08,28,8.10
2011,04,27,08,29,8.10
2011,04,27,08,30,8.10
2011,04,27,08,31,8.10
2011,04,27,08,32,8.10
2011,04,27,08,33,8.10
2011,04,27,08,34,8.10
2011,04,27,08,35,8.10
2011,04,27,08,36,8.10
2011,04,27,08,37,8.10
2011,04,27,08,38,8.10
2011,04,27,08,39,8.10
2011,04,27,08,40,8.10
2011,04,27,08,41,9.20
2011,04,27,08,42,9.20
2011,04,27,08,43,9.20
2011,04,27,08,44,9.20
2011,04,27,08,45,9.20
2011,04,27,08,46,9.20
2011,04,27,08,47,9.20
2011,04,27,08,48,9.20
2011,04,27,08,49,9.20
2011,04,27,08,50,9.20
2011,04,27,08,51,9.20
2011,04,27,08,52,9.20
2011,04,27,08,53,9.20
2011,04,27,08,54,9.20
2011,04,27,08,55,9.20
2011,04,27,08,56,8.90
2011,04,27,08,57,8.90
2011,04,27,08,58,8.90
2011,04,27,08,59,8.90
2011,04,27,09,00,8.90
2011,04,27,09,01,8.90
2011,04,27,09,02,8.90
2011,04,27,09,03,8.90
2011,04,27,09,04,8.90
2011,04,27,09,05,8.90
2011,04,27,09,06,8.90
2011,04,27,09,07,8.90
2011,04,27,09,08,8.90
2011,04,27,09,09,8.90
2011,04,27,09,10,8.90
2011,04,27,09,11,9.30
2011,04,27,09,12,9.30
2011,04,27,09,13,9.30
2011,04,27,09,14,9.30
2011,04,27,09,15,9.30
2011,04,27,09,16,9.30
2011,04,27,09,17,9.30
2011,04,27,09,18,9.30
2011,04,27,09,19,9.30
2011,04,27,09,20,9.30
2011,04,27,09,21,9.30
2011,04,27,09,22,9.30
2011,04,27,09,23,9.30
2011,04,27,09,24,9.30
2011,04,27,09,25,9.30
2011,04,27,09,26,9.30
2011,04,27,09,27,9.30
2011,04,27,09,28,9.30
2011,04,27,09,29,9.30
2011,04,27,09,30,9.30
2011,04,27,09,31,9.30
2011,04,27,09,32,9.30
2011,04,27,09,33,9.30
2011,04,27,09,34,9.30
2011,04,27,09,35,9.30
2011,04,27,09,36,9.30
2011,04,27,09,37,9.30
2011,04,27,09,38,9.30
2011,04,27,09,39,9.30
2011,04,27,09,40,9.30
2011,04,27,09,41,9.30
2011,04,27,09,42,9.30
2011,04,27,09,43,9.30
2011,04,27,09,44,9.30
2011,04,27,09,45,9.30
2011,04,27,09,46,9.30
2011,04,27,09,47,9.30
2011,04,27,09,48,9.30
2011,04,27,09,49,9.30
2011,04,27,09,50,9.30
2011,04,27,09,51,9.30
2011,04,27,09,52,9.30
2011,04,27,09,53,9.30
2011,04,27,09,54,9.30
2011,04,27,09,55,9.30
2011,04,27,09,56,9.30
2011,04,27,09,57,9.30
2011,04,27,09,58,9.30
2011,04,27,09,59,9.30
2011,04,27,10,00,9.30
2011,04,27,10,01,9.30
2011,04,27,10,02,9.30
2011,04,27,10,03,9.30
2011,04,27,10,04,9.30
2011,04,27,10,05,9.30
2011,04,27,10,06,9.30
2011,04,27,10,07,9.30
2011,04,27,10,08,9.30
2011,04,27,10,09,9.30
2011,04,27,10,10,9.30
2011,04,27,10,11,9.30
2011,04,27,10,12,9.30
2011,04,27,10,13,9.30
2011,04,27,10,14,9.30
2011,04,27,10,15,9.30
2011,04,27,10,16,9.30
2011,04,27,10,17,9.30
2011,04,27,10,18,9.30
2011,04,27,10,19,9.30
2011,04,27,10,20,9.30
2011,04,27,10,21,9.30
2011,04,27,10,22,9.30
2011,04,27,10,23,9.30
2011,04,27,10,24,9.30
2011,04,27,10,25,9.30
2011,04,27,10,26,9.30
2011,04,27,10,27,9.30
2011,04,27,10,28,9.30
2011,04,27,10,29,9.30
2011,04,27,10,30,9.30
2011,04,27,10,31,9.30
2011,04,27,10,32,9.30
2011,04,27,10,33,9.30
2011,04,27,10,34,9.30
2011,04,27,10,35,9.30
2011,04,27,10,36,9.30
2011,04,27,10,37,9.30
2011,04,27,10,38,9.30
2011,04,27,10,39,9.30
2011,04,27,10,40,9.30
2011,04,27,10,41,9.30
2011,04,27,10,42,9.30
2011,04,27,10,43,9.30
2011,04,27,10,44,9.30
2011,04,27,10,45,9.30
2011,04,27,10,46,9.30
2011,04,27,10,47,9.30
2011,04,27,10,48,9.30
2011,04,27,10,49,9.30
2011,04,27,10,50,9.30
2011,04,27,10,51,9.30
2011,04,27,10,52,9.30
2011,04,27,10,53,9.30
2011,04,27,10,54,9.30
2011,04,27,10,55,9.30
2011,04,27,10,56,9.30
2011,04,27,10,57,9.30
2011,04,27,10,58,9.30
2011,04,27,10,59,9.30
